Tracking 27112 objects as of 26-Mar-2023
HD Live streaming from Space Station
objects crossing your sky now

STARLINK-2456

Track STARLINK-2456 now!
10-day predictions
STARLINK-2456 is classified as:


NORAD ID: 47846
Int'l Code: 2021-018BM
Perigee: 553.4 km
Apogee: 555.3 km
Inclination: 53.1 °
Period: 95.6 minutes
Semi major axis: 6925 km
RCS: Unknown
Launch date: March 11, 2021
Source: United States (US)
Launch site: AIR FORCE EASTERN TEST RANGE (AFETR)
Your satellite tracking list
Your tracking list is empty




NASA's NSSDC Master Catalog

Two Line Element Set (TLE):
1 47846U 21018BM  23084.64958921 -.00037842  00000-0 -25356-2 0  9991
2 47846  53.0552  60.0922 0001375 108.1632 251.9507 15.06393045113861
Source of the keplerian elements: AFSPC